,,,PA_Meas_PMT16A,,PR_Meas_QMR101_102,,RH_Meas_QMH101,,SR_Meas_QMS101,,TA_Meas_QMH101,,GenWind,,GenWind,
date,time,status,PA,status,PR,status,RH,status,SR,status,TA,status,DirAvg,status,SpdAvg,
2010-11-17, 00:00:04,VALID,1002.5,VALID,0,INVALID,163.639,VALID,0,VALID,24.8289,VALID,342,VALID,0.303516,
2010-11-17, 00:01:04,VALID,1002.52,VALID,0,INVALID,163.632,VALID,0,VALID,24.8503,VALID,342,VALID,0.00625,
2010-11-17, 00:02:04,VALID,1002.48,VALID,0,INVALID,163.662,VALID,0,VALID,24.8503,VALID,342,VALID,0.164453,
2010-11-17, 00:03:04,VALID,1002.48,VALID,0,INVALID,163.586,VALID,0,VALID,24.8522,VALID,342,VALID,0,
2010-11-17, 00:04:04,VALID,1002.48,VALID,0,INVALID,163.632,VALID,0,VALID,24.8522,VALID,342,VALID,0.210547,
2010-11-17, 00:05:04,VALID,1002.47,VALID,0,INVALID,163.639,VALID,0,VALID,24.8113,VALID,342,VALID,0,
2010-11-17, 00:06:04,VALID,1002.47,VALID,0,INVALID,163.647,VALID,0.100563,VALID,24.8132,VALID,342,VALID,0,
2010-11-17, 00:07:04,VALID,1002.47,VALID,0,INVALID,163.655,VALID,0,VALID,24.7919,VALID,312,VALID,0,
2010-11-17, 00:08:04,VALID,1002.49,VALID,0,INVALID,163.632,VALID,0,VALID,24.79,VALID,312,VALID,0,
2010-11-17, 00:09:04,VALID,1002.47,VALID,0,INVALID,163.624,VALID,0,VALID,24.8308,VALID,340,VALID,0.584375,
2010-11-17, 00:10:04,VALID,1002.46,VALID,0,INVALID,163.617,VALID,0,VALID,24.8113,VALID,350,VALID,0.643359,
2010-11-17, 00:11:04,VALID,1002.43,VALID,0,INVALID,163.632,VALID,0,VALID,24.8327,VALID,353,VALID,0.726953,
2010-11-17, 00:12:04,VALID,1002.44,VALID,0,INVALID,163.617,VALID,0,VALID,24.8308,VALID,348,VALID,0.4125,
2010-11-17, 00:13:04,VALID,1002.4,VALID,0,INVALID,163.639,VALID,0,VALID,24.8095,VALID,348,VALID,0,
2010-11-17, 00:14:04,VALID,1002.4,VALID,0,INVALID,163.609,VALID,0,VALID,24.8327,VALID,347,VALID,0.135156,
2010-11-17, 00:15:04,VALID,1002.38,VALID,0,INVALID,163.647,VALID,0,VALID,24.8503,VALID,347,VALID,0.151172,
2010-11-17, 00:16:04,VALID,1002.36,VALID,0,INVALID,163.639,VALID,0,VALID,24.8503,VALID,347,VALID,0.00859375,
2010-11-17, 00:17:04,VALID,1002.36,VALID,0,INVALID,163.609,VALID,0,VALID,24.8892,VALID,347,VALID,0.171875,
2010-11-17, 00:18:04,VALID,1002.37,VALID,0,INVALID,163.609,VALID,0,VALID,24.9087,VALID,359,VALID,0.732031,
2010-11-17, 00:19:04,VALID,1002.4,VALID,0,INVALID,163.632,VALID,0,VALID,24.9476,VALID,345,VALID,0.0941406,
2010-11-17, 00:20:04,VALID,1002.41,VALID,0,INVALID,163.601,VALID,0,VALID,24.9671,VALID,345,VALID,0.524609,
2010-11-17, 00:21:04,VALID,1002.44,VALID,0,INVALID,163.624,VALID,0,VALID,24.9476,VALID,345,VALID,0.526172,
2010-11-17, 00:22:04,VALID,1002.48,VALID,0,INVALID,163.624,VALID,0,VALID,24.9282,VALID,335,VALID,0.671094,
2010-11-17, 00:23:04,VALID,1002.51,VALID,0,INVALID,163.632,VALID,0,VALID,24.9476,VALID,347,VALID,0.554688,
2010-11-17, 00:24:04,VALID,1002.5,VALID,0,INVALID,163.617,VALID,0,VALID,24.9476,VALID,350,VALID,0.525,
2010-11-17, 00:25:04,VALID,1002.52,VALID,0,INVALID,163.601,VALID,0,VALID,24.9866,VALID,353,VALID,0.685547,
2010-11-17, 00:26:04,VALID,1002.51,VALID,0,INVALID,163.609,VALID,0,VALID,25.0274,VALID,346,VALID,0.427344,
2010-11-17, 00:27:04,VALID,1002.52,VALID,0,INVALID,163.594,VALID,0,VALID,25.0663,VALID,344,VALID,0.203125,
2010-11-17, 00:28:04,VALID,1002.49,VALID,0,INVALID,163.609,VALID,0,VALID,25.0858,VALID,344,VALID,0.260938,
2010-11-17, 00:29:04,VALID,1002.48,VALID,0,INVALID,163.617,VALID,0,VALID,25.1053,VALID,355,VALID,0.208594,
2010-11-17, 00:30:04,VALID,1002.45,VALID,0,INVALID,163.594,VALID,0,VALID,25.1034,VALID,355,VALID,0.730078,
2010-11-17, 00:31:04,VALID,1002.42,VALID,0,INVALID,163.601,VALID,0,VALID,25.1442,VALID,341,VALID,0.666016,
2010-11-17, 00:32:04,VALID,1002.4,VALID,0,INVALID,163.601,VALID,0,VALID,25.1618,VALID,340,VALID,0.805859,
2010-11-17, 00:33:04,VALID,1002.38,VALID,0,INVALID,163.624,VALID,0,VALID,25.2221,VALID,347,VALID,0.691406,
2010-11-17, 00:34:04,VALID,1002.38,VALID,0,INVALID,163.609,VALID,0,VALID,25.2397,VALID,326,VALID,0.283203,
2010-11-17, 00:35:04,VALID,1002.36,VALID,0,INVALID,163.586,VALID,0,VALID,25.2397,VALID,326,VALID,0.0792969,
2010-11-17, 00:36:04,VALID,1002.33,VALID,0,INVALID,163.609,VALID,0,VALID,25.2611,VALID,326,VALID,0.217187,
2010-11-17, 00:37:04,VALID,1002.31,VALID,0,INVALID,163.639,VALID,0,VALID,25.2202,VALID,331,VALID,0.16875,
2010-11-17, 00:38:04,VALID,1002.29,VALID,0,INVALID,163.601,VALID,0,VALID,25.2611,VALID,304,VALID,0.274219,
2010-11-17, 00:39:04,VALID,1002.27,VALID,0,INVALID,163.571,VALID,0,VALID,25.2611,VALID,304,VALID,0.160547,
2010-11-17, 00:40:04,VALID,1002.26,VALID,0,INVALID,163.586,VALID,0,VALID,25.2611,VALID,287,VALID,0.863281,
2010-11-17, 00:41:04,VALID,1002.25,VALID,0,INVALID,163.594,VALID,0,VALID,25.3,VALID,310,VALID,0.428906,
2010-11-17, 00:42:04,VALID,1002.24,VALID,0,INVALID,163.594,VALID,0,VALID,25.3195,VALID,339,VALID,0.332031,
2010-11-17, 00:43:04,VALID,1002.23,VALID,0,INVALID,163.609,VALID,0,VALID,25.339,VALID,339,VALID,0.146875,
2010-11-17, 00:44:04,VALID,1002.21,VALID,0,INVALID,163.609,VALID,0,VALID,25.3584,VALID,302,VALID,0.0242187,
2010-11-17, 00:45:04,VALID,1002.2,VALID,0,INVALID,163.578,VALID,0,VALID,25.3584,VALID,304,VALID,0.171094,
2010-11-17, 00:46:04,VALID,1002.17,VALID,0,INVALID,163.594,VALID,0,VALID,25.337,VALID,328,VALID,0.134766,
2010-11-17, 00:47:04,VALID,1002.15,VALID,0,INVALID,163.594,VALID,0,VALID,25.339,VALID,324,VALID,0.407422,
2010-11-17, 00:48:04,VALID,1002.14,VALID,0,INVALID,163.601,VALID,0,VALID,25.339,VALID,344,VALID,0.7,
2010-11-17, 00:49:04,VALID,1002.15,VALID,0,INVALID,163.601,VALID,0,VALID,25.2981,VALID,345,VALID,0.214453,
2010-11-17, 00:50:04,VALID,1002.13,VALID,0,INVALID,163.601,VALID,0,VALID,25.2981,VALID,322,VALID,0.584375,
2010-11-17, 00:51:04,VALID,1002.1,VALID,0,INVALID,163.594,VALID,0,VALID,25.2981,VALID,340,VALID,0.525781,
2010-11-17, 00:52:04,VALID,1002.09,VALID,0,INVALID,163.617,VALID,0,VALID,25.3176,VALID,358,VALID,0.0347656,
2010-11-17, 00:53:04,VALID,1002.07,VALID,0,INVALID,163.609,VALID,0,VALID,25.2806,VALID,358,VALID,0,
2010-11-17, 00:54:04,VALID,1002.05,VALID,0,INVALID,163.586,VALID,0,VALID,25.2592,VALID,358,VALID,0.0242187,
2010-11-17, 00:55:04,VALID,1002.04,VALID,0,INVALID,163.617,VALID,0,VALID,25.2416,VALID,304,VALID,0.332422,
2010-11-17, 00:56:04,VALID,1002.02,VALID,0,INVALID,163.601,VALID,0,VALID,25.2397,VALID,304,VALID,0.319922,
2010-11-17, 00:57:04,VALID,1002.02,VALID,0,INVALID,163.594,VALID,0,VALID,25.2202,VALID,304,VALID,0,
2010-11-17, 00:58:04,VALID,1002.03,VALID,0,INVALID,163.624,VALID,0.100563,VALID,25.2202,VALID,316,VALID,0.323047,
2010-11-17, 00:59:04,VALID,1002.01,VALID,0,INVALID,163.601,VALID,0,VALID,25.2221,VALID,327,VALID,0.482422,
2010-11-17, 01:00:04,VALID,1002.01,VALID,0,INVALID,163.609,VALID,0,VALID,25.2007,VALID,331,VALID,0.291016,
2010-11-17, 01:01:04,VALID,1001.95,VALID,0,INVALID,163.601,VALID,0,VALID,25.2027,VALID,331,VALID,0,
2010-11-17, 01:02:04,VALID,1001.98,VALID,0,INVALID,163.601,VALID,0,VALID,25.1404,VALID,271,VALID,0.210156,
2010-11-17, 01:03:04,VALID,1001.99,VALID,0,INVALID,163.586,VALID,0,VALID,25.1637,VALID,280,VALID,0.779688,
2010-11-17, 01:04:04,VALID,1001.98,VALID,0,INVALID,163.617,VALID,0,VALID,25.1832,VALID,294,VALID,0.586328,
2010-11-17, 01:05:04,VALID,1001.96,VALID,0,INVALID,163.601,VALID,0,VALID,25.1423,VALID,300,VALID,0.132031,
2010-11-17, 01:06:04,VALID,1002,VALID,0,INVALID,163.617,VALID,0,VALID,25.1442,VALID,300,VALID,0.189063,
2010-11-17, 01:07:04,VALID,1002.02,VALID,0,INVALID,163.594,VALID,0,VALID,25.1229,VALID,287,VALID,0.462109,
2010-11-17, 01:08:04,VALID,1002.03,VALID,0,INVALID,163.609,VALID,0,VALID,25.1053,VALID,278,VALID,0.316016,
2010-11-17, 01:09:04,VALID,1002.05,VALID,0,INVALID,163.586,VALID,0,VALID,25.1053,VALID,289,VALID,0.340625,
2010-11-17, 01:10:04,VALID,1002.07,VALID,0,INVALID,163.594,VALID,0,VALID,25.1053,VALID,334,VALID,0.524609,
2010-11-17, 01:11:04,VALID,1002.04,VALID,0,INVALID,163.586,VALID,0,VALID,25.0839,VALID,349,VALID,0.778125,
2010-11-17, 01:12:04,VALID,1002.03,VALID,0,INVALID,163.609,VALID,0,VALID,25.1248,VALID,352,VALID,0.409766,
2010-11-17, 01:13:04,VALID,1002.03,VALID,0,INVALID,163.609,VALID,0,VALID,25.1248,VALID,325,VALID,0.305469,
2010-11-17, 01:14:04,VALID,1002.05,VALID,0,INVALID,163.594,VALID,0,VALID,25.1248,VALID,336,VALID,0.358984,
2010-11-17, 01:15:04,VALID,1002.04,VALID,0,INVALID,163.632,VALID,0,VALID,25.1053,VALID,329,VALID,0.357031,
2010-11-17, 01:16:04,VALID,1002.03,VALID,0,INVALID,163.609,VALID,0,VALID,25.0839,VALID,323,VALID,0.239063,
2010-11-17, 01:17:04,VALID,1002.04,VALID,0,INVALID,163.601,VALID,0,VALID,25.1053,VALID,325,VALID,0.215234,
2010-11-17, 01:18:04,VALID,1002,VALID,0,INVALID,163.617,VALID,0,VALID,25.0858,VALID,347,VALID,0.828906,
2010-11-17, 01:19:04,VALID,1001.95,VALID,0,INVALID,163.632,VALID,0,VALID,25.0663,VALID,349,VALID,1.01289,
2010-11-17, 01:20:04,VALID,1001.9,VALID,0,INVALID,163.617,VALID,0,VALID,25.045,VALID,315,VALID,0.243359,
2010-11-17, 01:21:04,VALID,1001.87,VALID,0,INVALID,163.609,VALID,0,VALID,25.0469,VALID,342,VALID,0.280469,
2010-11-17, 01:22:04,VALID,1001.83,VALID,0,INVALID,163.609,VALID,0,VALID,25.0469,VALID,332,VALID,0.416797,
2010-11-17, 01:23:04,VALID,1001.82,VALID,0,INVALID,163.632,VALID,0,VALID,25.0274,VALID,288,VALID,0.212891,
2010-11-17, 01:24:04,VALID,1001.78,VALID,0,INVALID,163.617,VALID,0,VALID,25.0079,VALID,291,VALID,0.133594,
2010-11-17, 01:25:04,VALID,1001.77,VALID,0,INVALID,163.617,VALID,0,VALID,24.9885,VALID,310,VALID,0.348437,
2010-11-17, 01:26:04,VALID,1001.77,VALID,0,INVALID,163.624,VALID,0,VALID,24.9885,VALID,340,VALID,0.225781,
2010-11-17, 01:27:04,VALID,1001.75,VALID,0,INVALID,163.617,VALID,0,VALID,24.9885,VALID,332,VALID,0.145313,
2010-11-17, 01:28:04,VALID,1001.74,VALID,0,INVALID,163.609,VALID,0,VALID,24.969,VALID,332,VALID,0.0226563,
2010-11-17, 01:29:04,VALID,1001.7,VALID,0,INVALID,163.617,VALID,0,VALID,24.9495,VALID,336,VALID,0.326953,
2010-11-17, 01:30:04,VALID,1001.67,VALID,0,INVALID,163.624,VALID,0,VALID,24.9282,VALID,360,VALID,0.472656,
2010-11-17, 01:31:04,VALID,1001.64,VALID,0,INVALID,163.632,VALID,0,VALID,24.8892,VALID,354,VALID,0.225781,
2010-11-17, 01:32:04,VALID,1001.62,VALID,0,INVALID,163.617,VALID,0,VALID,24.9106,VALID,354,VALID,0.438281,
2010-11-17, 01:33:04,VALID,1001.62,VALID,0,INVALID,163.632,VALID,0,VALID,24.9106,VALID,354,VALID,0.598047,
2010-11-17, 01:34:04,VALID,1001.61,VALID,0,INVALID,163.624,VALID,0,VALID,24.8911,VALID,342,VALID,0.828125,
2010-11-17, 01:35:04,VALID,1001.61,VALID,0,INVALID,163.639,VALID,0,VALID,24.8716,VALID,336,VALID,0.194141,
2010-11-17, 01:36:04,VALID,1001.55,VALID,0,INVALID,163.624,VALID,0,VALID,24.8503,VALID,325,VALID,0.2,
2010-11-17, 01:37:04,VALID,1001.52,VALID,0,INVALID,163.632,VALID,0,VALID,24.8522,VALID,324,VALID,0.137891,
2010-11-17, 01:38:04,VALID,1001.52,VALID,0,INVALID,163.632,VALID,0,VALID,24.8522,VALID,351,VALID,0.627344,
2010-11-17, 01:39:04,VALID,1001.47,VALID,0,INVALID,163.617,VALID,0,VALID,24.8522,VALID,340,VALID,0.623828,
2010-11-17, 01:40:04,VALID,1001.46,VALID,0,INVALID,163.617,VALID,0,VALID,24.8308,VALID,354,VALID,0.983594,
2010-11-17, 01:41:04,VALID,1001.42,VALID,0,INVALID,163.655,VALID,0,VALID,24.7919,VALID,354,VALID,0.543359,
2010-11-17, 01:42:04,VALID,1001.4,VALID,0,INVALID,163.639,VALID,0,VALID,24.7743,VALID,354,VALID,0.505469,
2010-11-17, 01:43:04,VALID,1001.36,VALID,0,INVALID,163.655,VALID,0,VALID,24.7353,VALID,354,VALID,0.483203,
2010-11-17, 01:44:04,VALID,1001.32,VALID,0,INVALID,163.647,VALID,0,VALID,24.7159,VALID,7,VALID,0.358984,
2010-11-17, 01:45:04,VALID,1001.29,VALID,0,INVALID,163.639,VALID,0,VALID,24.6769,VALID,7,VALID,0.338672,
2010-11-17, 01:46:04,VALID,1001.29,VALID,0,INVALID,163.632,VALID,0,VALID,24.6574,VALID,7,VALID,0.322656,
2010-11-17, 01:47:04,VALID,1001.29,VALID,0,INVALID,163.67,VALID,0,VALID,24.638,VALID,7,VALID,0.499609,
2010-11-17, 01:48:04,VALID,1001.27,VALID,0,INVALID,163.647,VALID,0,VALID,24.5972,VALID,355,VALID,0.739062,
2010-11-17, 01:49:04,VALID,1001.22,VALID,0,INVALID,163.647,VALID,0,VALID,24.638,VALID,351,VALID,0.609375,
2010-11-17, 01:50:04,VALID,1001.24,VALID,0,INVALID,163.624,VALID,0,VALID,24.6361,VALID,345,VALID,0.719922,
2010-11-17, 01:51:04,VALID,1001.3,VALID,0,INVALID,163.647,VALID,0,VALID,24.6574,VALID,356,VALID,0.579687,
2010-11-17, 01:52:04,VALID,1001.26,VALID,0,INVALID,163.655,VALID,0,VALID,24.6166,VALID,6,VALID,0.399219,
2010-11-17, 01:53:04,VALID,1001.27,VALID,0,INVALID,163.662,VALID,0,VALID,24.6574,VALID,355,VALID,0.767187,
2010-11-17, 01:54:04,VALID,1001.24,VALID,0,INVALID,163.639,VALID,0,VALID,24.6166,VALID,3,VALID,0.397266,
2010-11-17, 01:55:04,VALID,1001.27,VALID,0,INVALID,163.632,VALID,0,VALID,24.6556,VALID,339,VALID,0.699219,
2010-11-17, 01:56:04,VALID,1001.29,VALID,0,INVALID,163.655,VALID,0,VALID,24.6556,VALID,349,VALID,0.663281,
2010-11-17, 01:57:04,VALID,1001.28,VALID,0,INVALID,163.632,VALID,0,VALID,24.6574,VALID,340,VALID,1.11406,
2010-11-17, 01:58:04,VALID,1001.25,VALID,0,INVALID,163.639,VALID,0,VALID,24.6964,VALID,313,VALID,0.518359,
2010-11-17, 01:59:04,VALID,1001.24,VALID,0,INVALID,163.655,VALID,0,VALID,24.6964,VALID,343,VALID,0.911328,
2010-11-17, 02:00:04,VALID,1001.23,VALID,0,INVALID,163.655,VALID,0,VALID,24.6964,VALID,344,VALID,0.819531,
2010-11-17, 02:01:04,VALID,1001.24,VALID,0,INVALID,163.632,VALID,0,VALID,24.6769,VALID,348,VALID,1.0875,
2010-11-17, 02:02:04,VALID,1001.28,VALID,0,INVALID,163.624,VALID,0,VALID,24.6769,VALID,352,VALID,0.746875,
2010-11-17, 02:03:04,VALID,1001.27,VALID,0,INVALID,163.655,VALID,0,VALID,24.6769,VALID,18,VALID,0.553906,
2010-11-17, 02:04:04,VALID,1001.26,VALID,0,INVALID,163.639,VALID,0,VALID,24.6166,VALID,343,VALID,0.824219,
2010-11-17, 02:05:04,VALID,1001.23,VALID,0,INVALID,162.671,VALID,0,VALID,24.5972,VALID,347,VALID,1.19102,
2010-11-17, 02:06:04,VALID,1001.19,VALID,0,INVALID,152.707,VALID,0,VALID,24.5972,VALID,339,VALID,0.821094,
2010-11-17, 02:07:04,VALID,1001.18,VALID,0,INVALID,146.803,VALID,0,VALID,24.5972,VALID,339,VALID,0.668359,
2010-11-17, 02:08:04,VALID,1001.18,VALID,0,INVALID,145.658,VALID,0,VALID,24.6185,VALID,350,VALID,0.61875,
2010-11-17, 02:09:04,VALID,1001.17,VALID,0,INVALID,142.485,VALID,0,VALID,24.5582,VALID,349,VALID,1.08672,
2010-11-17, 02:10:04,VALID,1001.17,VALID,0,INVALID,136.793,VALID,0,VALID,24.5777,VALID,1,VALID,0.733594,
2010-11-17, 02:11:04,VALID,1001.15,VALID,0,INVALID,130.133,VALID,0,VALID,24.5582,VALID,355,VALID,1.03711,
2010-11-17, 02:12:04,VALID,1001.13,VALID,0,INVALID,130.622,VALID,0,VALID,24.5582,VALID,349,VALID,0.874609,
2010-11-17, 02:13:04,VALID,1001.13,VALID,0,INVALID,129.76,VALID,0,VALID,24.5601,VALID,340,VALID,0.860156,
2010-11-17, 02:14:04,VALID,1001.16,VALID,0,INVALID,127.593,VALID,0,VALID,24.5406,VALID,340,VALID,1.16133,
2010-11-17, 02:15:04,VALID,1001.14,VALID,0,INVALID,125.205,VALID,0,VALID,24.5174,VALID,359,VALID,0.873438,
2010-11-17, 02:16:04,VALID,1001.13,VALID,0,INVALID,120.796,VALID,0,VALID,24.5796,VALID,346,VALID,1.4918,
2010-11-17, 02:17:04,VALID,1001.12,VALID,0,INVALID,116.768,VALID,0,VALID,24.6574,VALID,325,VALID,0.853125,
2010-11-17, 02:18:04,VALID,1001.13,VALID,0,INVALID,115.684,VALID,0,VALID,24.6945,VALID,345,VALID,0.763281,
2010-11-17, 02:19:04,VALID,1001.13,VALID,0,INVALID,114.479,VALID,0,VALID,24.6945,VALID,330,VALID,0.386719,
2010-11-17, 02:20:04,VALID,1001.12,VALID,0,INVALID,115.753,VALID,0,VALID,24.714,VALID,355,VALID,1.26445,
2010-11-17, 02:21:04,VALID,1001.12,VALID,0,INVALID,116.447,VALID,0,VALID,24.7548,VALID,329,VALID,0.80625,
2010-11-17, 02:22:04,VALID,1001.09,VALID,0,INVALID,117.698,VALID,0,VALID,24.7548,VALID,356,VALID,0.673828,
2010-11-17, 02:23:04,VALID,1001.1,VALID,0,INVALID,118.293,VALID,0,VALID,24.7548,VALID,323,VALID,0.896484,
2010-11-17, 02:24:04,VALID,1001.12,VALID,0,INVALID,119.743,VALID,0,VALID,24.7743,VALID,346,VALID,1.46289,
2010-11-17, 02:25:04,VALID,1001.13,VALID,0,INVALID,121.154,VALID,0,VALID,24.7529,VALID,339,VALID,0.642578,
2010-11-17, 02:26:04,VALID,1001.14,VALID,0,INVALID,121.52,VALID,0,VALID,24.714,VALID,302,VALID,0.516406,
2010-11-17, 02:27:04,VALID,1001.14,VALID,0,INVALID,122.985,VALID,0,VALID,24.7335,VALID,336,VALID,0.396875,
2010-11-17, 02:28:04,VALID,1001.15,VALID,0,INVALID,126.67,VALID,0,VALID,24.6945,VALID,340,VALID,0.863672,
2010-11-17, 02:29:04,VALID,1001.15,VALID,0,INVALID,130.05,VALID,0,VALID,24.7159,VALID,345,VALID,0.714453,
2010-11-17, 02:30:04,VALID,1001.15,VALID,0,INVALID,133.689,VALID,0,VALID,24.675,VALID,321,VALID,0.835156,
2010-11-17, 02:31:04,VALID,1001.14,VALID,0,INVALID,136.214,VALID,0,VALID,24.6556,VALID,357,VALID,0.645312,
2010-11-17, 02:32:04,VALID,1001.06,VALID,0,INVALID,139.296,VALID,0,VALID,24.6361,VALID,345,VALID,0.641406,
2010-11-17, 02:33:04,VALID,1001.07,VALID,0,INVALID,141.981,VALID,0,VALID,24.6361,VALID,8,VALID,0.615625,
2010-11-17, 02:34:04,VALID,1001.11,VALID,0,INVALID,147.07,VALID,0,VALID,24.6148,VALID,329,VALID,0.716406,
2010-11-17, 02:35:04,VALID,1001.13,VALID,0,INVALID,153.951,VALID,0,VALID,24.6166,VALID,331,VALID,0.841797,
2010-11-17, 02:36:04,VALID,1001.13,VALID,0,INVALID,159.939,VALID,0,VALID,24.6166,VALID,347,VALID,0.691797,
2010-11-17, 02:37:04,VALID,1001.15,VALID,0,INVALID,163.601,VALID,0.100563,VALID,24.5972,VALID,355,VALID,0.554688,
2010-11-17, 02:38:04,VALID,1001.13,VALID,0,INVALID,163.632,VALID,0.100563,VALID,24.5564,VALID,330,VALID,0.783203,
2010-11-17, 02:39:04,VALID,1001.13,VALID,0,INVALID,163.624,VALID,0,VALID,24.5777,VALID,344,VALID,0.480859,
2010-11-17, 02:40:04,VALID,1001.11,VALID,0,INVALID,163.617,VALID,0,VALID,24.5777,VALID,286,VALID,0.340625,
2010-11-17, 02:41:04,VALID,1001.12,VALID,0,INVALID,163.632,VALID,0,VALID,24.5369,VALID,345,VALID,0.848828,
2010-11-17, 02:42:04,VALID,1001.12,VALID,0,INVALID,163.655,VALID,0,VALID,24.5796,VALID,344,VALID,1.31367,
2010-11-17, 02:43:04,VALID,1001.11,VALID,0,INVALID,163.609,VALID,0,VALID,24.5796,VALID,346,VALID,0.960156,
2010-11-17, 02:44:04,VALID,1001.08,VALID,0,INVALID,163.548,VALID,0,VALID,24.5777,VALID,355,VALID,0.535156,
2010-11-17, 02:45:04,VALID,1001.09,VALID,0,INVALID,163.502,VALID,0,VALID,24.5777,VALID,337,VALID,0.777734,
2010-11-17, 02:46:04,VALID,1001.06,VALID,0,INVALID,163.434,VALID,0.100563,VALID,24.6185,VALID,339,VALID,0.945313,
2010-11-17, 02:47:04,VALID,1001.08,VALID,0,INVALID,163.601,VALID,0,VALID,24.5777,VALID,342,VALID,0.754687,
2010-11-17, 02:48:04,VALID,1001.09,VALID,0,INVALID,163.601,VALID,0,VALID,24.5777,VALID,327,VALID,0.595703,
2010-11-17, 02:49:04,VALID,1001.1,VALID,0,INVALID,163.647,VALID,0,VALID,24.5777,VALID,335,VALID,0.659375,
2010-11-17, 02:50:04,VALID,1001.06,VALID,0,INVALID,163.639,VALID,0,VALID,24.5582,VALID,349,VALID,0.505859,
2010-11-17, 02:51:04,VALID,1001.05,VALID,0,INVALID,163.639,VALID,0,VALID,24.5582,VALID,353,VALID,0.476953,
2010-11-17, 02:52:04,VALID,1001.03,VALID,0,INVALID,163.662,VALID,0,VALID,24.5388,VALID,352,VALID,0.180859,
2010-11-17, 02:53:04,VALID,1001.02,VALID,0,INVALID,163.655,VALID,0,VALID,24.5193,VALID,336,VALID,1.02813,
2010-11-17, 02:54:04,VALID,1001.03,VALID,0,INVALID,163.655,VALID,0,VALID,24.5174,VALID,353,VALID,0.766016,
2010-11-17, 02:55:04,VALID,1001.05,VALID,0,INVALID,163.662,VALID,0,VALID,24.5388,VALID,275,VALID,0.339844,
2010-11-17, 02:56:04,VALID,1001.03,VALID,0,INVALID,163.655,VALID,0,VALID,24.5601,VALID,359,VALID,0.769531,
2010-11-17, 02:57:04,VALID,1001.05,VALID,0,INVALID,163.647,VALID,0,VALID,24.5796,VALID,345,VALID,1.22852,
2010-11-17, 02:58:04,VALID,1001.07,VALID,0,INVALID,163.655,VALID,0,VALID,24.6185,VALID,338,VALID,0.208984,
2010-11-17, 02:59:04,VALID,1001.08,VALID,0,INVALID,163.639,VALID,0,VALID,24.5777,VALID,338,VALID,0.239063,
2010-11-17, 03:00:04,VALID,1001.06,VALID,0,INVALID,163.639,VALID,0,VALID,24.5777,VALID,338,VALID,0.2125,
2010-11-17, 03:01:04,VALID,1001.04,VALID,0,INVALID,163.639,VALID,0,VALID,24.5777,VALID,352,VALID,0.5125,
2010-11-17, 03:02:04,VALID,1001.05,VALID,0,INVALID,163.678,VALID,0,VALID,24.5777,VALID,347,VALID,0.619531,
2010-11-17, 03:03:04,VALID,1001.09,VALID,0,INVALID,163.632,VALID,0,VALID,24.5777,VALID,351,VALID,0.746484,
2010-11-17, 03:04:04,VALID,1001.1,VALID,0,INVALID,163.639,VALID,0,VALID,24.5972,VALID,343,VALID,1.12148,
2010-11-17, 03:05:04,VALID,1001.15,VALID,0,INVALID,163.632,VALID,0,VALID,24.599,VALID,2,VALID,0.594531,
2010-11-17, 03:06:04,VALID,1001.13,VALID,0,INVALID,163.639,VALID,0,VALID,24.5972,VALID,291,VALID,0.607031,
2010-11-17, 03:07:04,VALID,1001.14,VALID,0,INVALID,163.647,VALID,0,VALID,24.6361,VALID,291,VALID,0.142188,
2010-11-17, 03:08:04,VALID,1001.15,VALID,0,INVALID,163.647,VALID,0,VALID,24.5953,VALID,300,VALID,0,
2010-11-17, 03:09:04,VALID,1001.13,VALID,0,INVALID,163.662,VALID,0,VALID,24.5972,VALID,341,VALID,0.640234,
2010-11-17, 03:10:04,VALID,1001.12,VALID,0,INVALID,163.655,VALID,0,VALID,24.6148,VALID,347,VALID,0.575,
2010-11-17, 03:11:04,VALID,1001.16,VALID,0,INVALID,163.655,VALID,0.100563,VALID,24.6556,VALID,327,VALID,0.907812,
2010-11-17, 03:12:04,VALID,1001.16,VALID,0,INVALID,163.639,VALID,0,VALID,24.6945,VALID,303,VALID,0.491016,
2010-11-17, 03:13:04,VALID,1001.18,VALID,0,INVALID,163.632,VALID,0,VALID,24.6945,VALID,326,VALID,0.398047,
2010-11-17, 03:14:04,VALID,1001.22,VALID,0,INVALID,163.624,VALID,0,VALID,24.714,VALID,10,VALID,0.175,
2010-11-17, 03:15:04,VALID,1001.26,VALID,0,INVALID,163.647,VALID,0,VALID,24.714,VALID,346,VALID,0.826563,
2010-11-17, 03:16:04,VALID,1001.28,VALID,0,INVALID,163.639,VALID,0,VALID,24.7335,VALID,277,VALID,0.469141,
2010-11-17, 03:17:04,VALID,1001.28,VALID,0,INVALID,163.624,VALID,0.100563,VALID,24.7529,VALID,335,VALID,0.429688,
2010-11-17, 03:18:04,VALID,1001.32,VALID,0,INVALID,163.647,VALID,0,VALID,24.7529,VALID,341,VALID,0.517578,
2010-11-17, 03:19:04,VALID,1001.33,VALID,0,INVALID,163.624,VALID,0,VALID,24.7937,VALID,336,VALID,0.377344,
2010-11-17, 03:20:04,VALID,1001.35,VALID,0,INVALID,163.655,VALID,0.100563,VALID,24.7919,VALID,358,VALID,0.890625,
2010-11-17, 03:21:04,VALID,1001.4,VALID,0,INVALID,163.655,VALID,0.100563,VALID,24.7919,VALID,356,VALID,0.617188,
2010-11-17, 03:22:04,VALID,1001.46,VALID,0,INVALID,163.624,VALID,0.100563,VALID,24.8308,VALID,359,VALID,0.369922,
2010-11-17, 03:23:04,VALID,1001.48,VALID,0,INVALID,163.632,VALID,0,VALID,24.8308,VALID,261,VALID,0.723047,
2010-11-17, 03:24:04,VALID,1001.52,VALID,0,INVALID,163.594,VALID,0,VALID,24.8308,VALID,292,VALID,0.776172,
2010-11-17, 03:25:04,VALID,1001.54,VALID,0,INVALID,163.632,VALID,0.100563,VALID,24.8503,VALID,342,VALID,0.8125,
2010-11-17, 03:26:04,VALID,1001.55,VALID,0,INVALID,163.639,VALID,0,VALID,24.8484,VALID,351,VALID,0.263281,
2010-11-17, 03:27:04,VALID,1001.57,VALID,0,INVALID,163.639,VALID,0.100563,VALID,24.8679,VALID,354,VALID,0.840234,
2010-11-17, 03:28:04,VALID,1001.54,VALID,0,INVALID,163.647,VALID,0,VALID,24.8697,VALID,345,VALID,0.116016,
2010-11-17, 03:29:04,VALID,1001.55,VALID,0,INVALID,163.617,VALID,0,VALID,24.8697,VALID,287,VALID,0.925781,
2010-11-17, 03:30:04,VALID,1001.52,VALID,0,INVALID,163.601,VALID,0,VALID,24.8892,VALID,289,VALID,0.589844,
2010-11-17, 03:31:04,VALID,1001.54,VALID,0,INVALID,163.601,VALID,0,VALID,24.9087,VALID,279,VALID,0.324219,
2010-11-17, 03:32:04,VALID,1001.58,VALID,0,INVALID,163.609,VALID,0,VALID,24.9087,VALID,332,VALID,0.234766,
2010-11-17, 03:33:04,VALID,1001.58,VALID,0,INVALID,163.617,VALID,0,VALID,24.9087,VALID,326,VALID,0.129297,
2010-11-17, 03:34:04,VALID,1001.58,VALID,0,INVALID,163.632,VALID,0,VALID,24.8892,VALID,354,VALID,0.235547,
2010-11-17, 03:35:04,VALID,1001.57,VALID,0,INVALID,163.632,VALID,0,VALID,24.8892,VALID,354,VALID,0.150391,
2010-11-17, 03:36:04,VALID,1001.55,VALID,0,INVALID,163.624,VALID,0,VALID,24.8716,VALID,348,VALID,0.167578,
2010-11-17, 03:37:04,VALID,1001.56,VALID,0,INVALID,163.639,VALID,0,VALID,24.8503,VALID,351,VALID,0.474609,
2010-11-17, 03:38:04,VALID,1001.58,VALID,0,INVALID,163.601,VALID,0,VALID,24.8503,VALID,345,VALID,0.765234,
2010-11-17, 03:39:04,VALID,1001.56,VALID,0,INVALID,163.639,VALID,0,VALID,24.8503,VALID,330,VALID,0.492969,
2010-11-17, 03:40:04,VALID,1001.57,VALID,0,INVALID,163.639,VALID,0,VALID,24.8308,VALID,335,VALID,0.539063,